Location: Newark
(13.3167°N, 169.1500°W)
Time: 18:08:07
(UTC+00:00)

Hubble Space Telescope - Visible Passes

Search period start: 22 September 2019 00:00
Search period end: 02 October 2019 00:00
Orbit: 536 x 540 km, 28.5° (Epoch: 21 September)

Date Brightness Start Highest point End Pass type
(mag) Time Alt. Az. Time Alt. Az. Time Alt. Az.
22 Sep 2.8 15:23:44 19° N 15:24:14 19° NNE 15:27:15 10° ENE visible
23 Sep 3.2 06:42:37 10° S 06:43:09 12° S 06:43:09 12° S visible
23 Sep 2.7 15:14:09 23° NNE 15:14:09 23° NNE 15:17:08 10° ENE visible
24 Sep 2.4 06:31:25 10° SSW 06:33:43 21° S 06:33:43 21° S visible
24 Sep 2.9 15:04:37 24° NE 15:04:37 24° NE 15:06:56 10° E visible
24 Sep 1.0 16:40:31 10° WNW 16:44:33 55° SSW 16:48:35 10° SE visible
25 Sep 1.7 06:20:27 10° SSW 06:24:08 31° SSE 06:24:17 31° SE visible
25 Sep 3.3 14:55:08 20° E 14:55:08 20° E 14:56:40 10° E visible
25 Sep 1.4 16:30:31 12° W 16:33:59 39° SSW 16:37:51 10° SE visible
26 Sep 1.2 06:09:37 10° SW 06:13:33 44° SSE 06:14:50 33° ESE visible
26 Sep 3.8 14:45:42 14° E 14:45:42 14° E 14:46:18 10° E visible
26 Sep 1.9 16:21:04 17° WSW 16:23:24 28° SSW 16:26:57 10° SSE visible
27 Sep 0.8 05:58:54 10° SW 06:02:59 63° SSE 06:05:19 24° ENE visible
27 Sep 2.3 16:11:39 18° SW 16:12:50 20° SSW 16:15:55 10° SSE visible
28 Sep 0.7 05:48:17 10° WSW 05:52:26 88° SE 05:55:46 15° ENE visible
28 Sep 3.9 07:30:33 10° WNW 07:31:07 13° WNW 07:31:07 13° WNW visible
28 Sep 2.7 16:02:12 15° SSW 16:02:15 15° SSW 16:04:36 10° S visible
29 Sep 1.0 05:37:46 10° WSW 05:41:53 68° NNW 05:45:59 10° ENE visible
29 Sep 3.6 07:20:27 10° WNW 07:21:28 14° NW 07:21:28 14° NW visible
30 Sep 1.5 05:27:20 10° W 05:31:21 49° NNW 05:35:22 10° NE visible
30 Sep 3.5 07:10:25 10° NW 07:11:45 14° NW 07:11:45 14° NW visible
01 Oct 3.4 07:00:28 10° NW 07:01:57 13° NNW 07:01:57 13° NNW visible
